Dewpoint
73 74 75 75 73 74 74 74 75 75 74 75 74 74 75 75 75 76 76 76 76 76 76 76 76 76 77 77 78 77 77 77 78 77 77 77 77 76 77 77 77 77 75 75 75 75 76 76 76 76 76 75 75 75 75 76 75 75 75 74 73 73 73 73 72 72 73 73 73 73 73 73 73 73 72 72 71 71 70 71 69 70 72 72 72
72 74 73 73 75 74 74 75 76 75 74 75 75 74 75 75 75 76 76 76 76 76 76 76 76 76 77 77 77 77 77 77 77 77 77 77 76 76 76 77 77 76 76 76 76 76 77 76 76 75 76 76 75 76 76 76 76 75 75 75 75 73 75 75 73 72 72 73 72 72 73 73 73 73 73 72 71 70 70 71 71 71 71 72 72
72 74 73 74 75 74 75 75 76 76 76 76 76 76 76 75 75 75 76 76 76 76 76 76 76 77 77 77 77 77 77 76 76 77 77 76 76 76 76 77 76 76 76 76 76 76 77 77 77 76 76 76 76 76 76 76 76 76 75 74 76 75 75 75 76 74 73 72 70 72 72 72 73 72 72 72 71 71 72 72 72 71 71 73 73
71 71 73 75 75 74 74 74 75 76 75 76 75 76 76 76 76 75 76 76 76 76 75 75 76 76 77 77 77 77 76 77 77 76 76 76 76 76 77 77 77 76 75 76 75 76 76 76 76 76 76 75 76 76 76 76 76 76 76 76 75 75 75 74 74 74 74 74 72 72 73 72 72 72 72 71 71 72 73 73 72 72 72 72 73
72 72 73 74 73 75 75 75 75 75 75 75 74 76 76 76 76 76 75 75 75 75 75 75 76 76 77 76 76 77 76 76 76 76 76 76 76 77 77 77 76 76 76 76 76 75 75 75 76 76 75 75 76 76 75 76 76 76 76 76 75 74 75 74 73 74 73 73 72 71 71 72 71 71 71 72 72 72 73 73 73 73 73 72 73
71 72 72 72 73 75 75 75 74 74 75 75 75 76 76 76 76 76 76 76 75 75 75 75 76 76 76 76 76 76 76 76 75 76 75 75 77 77 77 77 77 77 77 77 76 76 75 75 75 76 76 75 76 76 76 76 76 76 76 76 76 75 75 75 74 73 74 75 73 72 72 71 71 71 72 72 72 73 72 73 74 72 72 73 72
71 71 71 71 73 75 76 75 74 75 74 75 75 76 76 76 76 76 76 76 75 76 75 75 76 76 76 76 76 76 76 75 75 75 75 76 76 77 77 77 77 77 77 77 77 76 76 76 76 76 76 76 76 76 76 76 76 76 76 76 76 76 75 75 75 75 75 75 73 74 71 71 71 70 72 72 72 72 73 73 73 73 72 72 72
69 70 71 72 73 74 76 75 76 76 75 76 75 76 76 76 76 77 76 76 76 75 74 75 76 76 76 76 76 76 75 75 75 75 75 76 76 76 76 77 77 77 77 76 77 77 77 77 76 76 76 76 75 76 76 76 76 75 75 75 75 75 75 75 75 75 75 74 71 72 71 72 73 70 73 73 72 72 73 73 73 73 73 72 72
70 71 71 71 73 75 75 75 75 75 75 75 75 75 76 76 76 76 76 76 75 75 75 75 75 75 75 75 75 75 75 75 74 75 75 76 77 77 77 76 76 76 76 76 76 76 76 76 76 76 75 76 76 76 76 76 76 76 76 75 75 75 75 75 74 75 74 74 74 75 73 72 71 69 72 73 72 72 73 73 73 73 72 73 72
70 71 70 72 72 76 75 74 74 75 76 76 76 75 76 76 76 76 76 76 75 76 75 75 75 75 75 75 75 75 75 74 74 75 76 77 77 77 76 76 77 77 77 76 76 76 76 75 75 75 75 75 75 75 75 75 75 76 75 75 75 75 75 75 75 74 73 75 73 74 70 72 71 67 71 72 72 71 72 71 71 71 72 72 72
69 71 72 72 73 76 75 75 75 75 76 76 76 76 76 76 77 76 76 75 75 75 75 75 75 75 75 75 75 75 74 75 75 75 76 77 77 76 76 76 76 76 76 76 76 75 75 75 74 74 74 74 75 74 74 74 75 75 75 75 75 74 75 75 74 72 74 73 73 74 72 74 72 70 73 73 72 71 71 72 72 72 73 72 72
69 70 72 73 77 76 76 75 75 76 76 76 76 76 76 76 76 76 75 75 75 75 75 75 75 75 75 75 75 75 75 75 75 74 76 76 76 76 76 76 76 76 76 76 75 75 75 74 74 74 74 74 74 74 74 74 74 75 74 75 75 75 75 75 74 74 74 73 73 72 71 71 71 70 73 72 72 71 71 72 72 72 71 71 72
69 70 72 72 73 76 76 76 75 76 76 77 77 76 76 76 76 76 75 75 75 75 75 75 75 75 75 75 75 75 75 75 75 75 76 76 76 76 76 75 75 75 76 75 75 75 75 75 74 74 74 75 75 74 74 74 74 75 74 75 75 75 75 75 74 73 73 73 73 73 73 73 71 73 72 72 72 72 71 72 72 72 72 71 72
70 70 70 71 73 77 76 77 77 76 77 76 77 77 76 76 75 75 75 75 75 75 75 75 75 75 75 75 75 75 75 75 75 75 75 76 76 76 75 75 75 75 75 75 75 75 74 74 74 73 74 74 74 74 74 74 74 74 75 74 74 74 75 75 71 73 73 73 73 74 73 74 74 73 73 73 73 72 72 71 71 72 71 71 71
69 68 69 72 74 75 78 77 78 77 77 77 77 77 77 76 76 76 76 75 75 74 74 74 74 74 74 75 75 75 75 75 75 75 75 76 76 76 76 76 75 75 75 75 74 74 75 75 75 74 74 75 75 74 74 74 75 75 75 74 74 74 75 75 73 73 73 73 73 73 74 73 76 74 73 73 73 72 72 72 71 71 71 71 71
67 68 69 70 72 76 76 78 77 77 77 77 77 77 77 76 76 76 75 75 74 75 74 74 74 75 75 75 75 75 75 75 75 76 75 74 75 76 76 75 75 75 75 74 74 74 75 75 74 75 74 74 74 74 74 74 74 74 74 74 74 74 75 74 74 72 74 73 74 73 74 73 75 74 73 73 73 73 73 72 71 71 71 72 71
68 69 68 70 72 73 74 76 76 77 77 77 77 77 77 77 76 76 75 75 74 74 74 74 75 75 75 76 76 75 76 75 76 76 75 74 74 75 76 76 75 75 75 75 75 75 75 75 75 74 75 74 74 74 74 74 75 74 74 75 74 75 75 76 75 72 71 73 74 73 73 74 75 74 73 73 73 73 72 72 71 71 71 71 71
68 69 70 70 70 71 71 74 77 77 77 78 77 77 77 76 76 76 75 75 74 75 74 75 75 76 76 76 76 75 76 76 76 76 75 74 73 73 74 74 75 75 76 76 75 75 75 75 74 74 74 75 75 75 75 75 75 75 75 75 75 75 75 76 72 73 72 73 73 74 74 74 76 74 73 73 73 73 73 73 72 72 71 71 72
68 68 69 69 70 70 71 74 76 75 76 76 76 77 76 76 76 76 76 76 76 75 76 76 76 76 76 75 75 76 75 75 76 75 75 74 74 72 74 74 75 75 74 76 75 75 75 74 74 74 74 75 75 75 75 75 76 76 75 75 75 75 76 76 72 72 73 76 73 73 74 75 75 75 73 73 72 73 73 72 72 72 71 71 73
70 69 69 70 70 71 72 72 74 74 74 73 75 76 76 76 76 76 76 76 76 76 76 76 76 76 75 75 75 75 75 76 76 75 75 74 74 74 75 75 75 74 74 74 75 75 75 74 74 74 75 75 75 75 74 74 75 74 74 74 74 75 75 73 73 74 71 71 73 73 76 75 75 75 74 73 72 72 73 73 72 72 72 71 72
69 70 70 71 70 71 72 72 73 74 73 74 75 76 76 77 76 76 76 76 76 76 76 76 76 76 75 75 75 74 74 76 76 74 74 75 76 76 75 75 75 75 74 74 75 75 75 75 74 75 75 75 75 76 73 74 75 74 74 74 75 72 73 71 70 69 70 76 75 75 76 76 76 75 74 73 72 72 73 73 73 72 72 72 72
68 69 71 70 71 71 72 73 75 74 75 76 75 75 76 76 75 77 77 77 76 76 77 75 75 75 75 75 75 75 77 75 76 74 74 74 75 75 76 76 75 75 75 75 75 75 75 72 73 75 74 74 76 75 76 74 75 74 75 76 75 72 71 71 71 70 68 70 74 76 76 76 76 76 75 73 73 72 73 73 73 73 72 72 72
67 68 69 70 72 72 72 72 73 73 75 74 74 74 75 75 76 75 75 76 76 76 74 74 74 76 74 74 75 75 76 76 77 75 76 74 75 76 76 76 76 76 75 75 75 76 74 72 72 72 73 74 75 75 75 76 77 76 76 76 71 71 72 72 72 74 74 73 74 75 75 76 76 76 74 74 73 72 73 73 73 73 73 73 72
65 67 69 69 70 69 71 72 72 74 75 74 73 73 74 76 76 74 74 74 75 74 73 74 75 77 77 76 75 74 75 76 76 76 75 72 74 76 77 76 76 76 76 75 75 76 74 73 73 73 72 75 73 73 68 69 69 70 71 69 70 71 72 72 71 73 71 74 74 75 74 74 75 75 75 74 73 73 72 72 73 73 73 72 72
66 66 67 69 70 69 70 72 73 76 75 74 72 72 74 75 75 73 74 72 74 72 73 75 76 76 75 74 73 73 73 73 76 73 71 75 76 74 76 75 75 76 76 75 75 75 74 73 74 74 74 73 71 70 70 70 71 71 70 70 69 71 69 70 69 70 71 76 74 75 74 74 75 75 75 74 74 73 73 72 73 73 73 73 73
67 65 66 68 69 70 72 72 72 74 72 73 72 73 75 73 71 72 74 72 73 73 72 74 73 76 74 73 72 73 74 73 73 74 76 74 74 74 74 75 76 74 74 74 75 72 73 71 71 72 72 71 68 71 71 72 71 71 69 70 68 67 66 65 64 68 69 76 74 74 74 74 75 75 75 75 74 73 73 72 73 73 73 73 73
65 66 66 68 69 70 71 72 71 72 73 72 72 73 72 71 71 72 72 72 72 73 71 71 72 74 73 73 70 70 71 72 72 73 72 72 71 73 75 74 76 73 77 73 72 72 70 69 68 70 70 69 68 70 70 70 72 71 69 65 66 65 65 64 64 64 65 67 74 74 74 75 75 75 75 75 75 74 73 74 74 73 73 73 73
66 67 65 66 69 68 71 72 71 72 72 72 72 72 73 72 71 72 72 72 71 74 70 70 72 74 74 73 73 72 69 69 71 71 71 72 71 71 72 72 72 72 72 72 69 68 68 69 72 71 72 72 67 69 68 69 70 70 65 64 65 65 65 64 65 66 65 66 75 74 74 75 75 74 75 75 75 74 75 74 75 75 74 73 73
65 67 66 66 67 68 69 70 70 72 71 71 71 70 72 72 72 72 71 73 73 71 70 72 72 72 74 74 74 70 69 70 70 70 70 71 72 71 71 72 73 70 71 69 69 71 70 68 74 71 72 71 69 69 69 69 67 65 63 63 63 64 64 64 65 64 65 64 66 75 74 75 75 75 75 75 75 74 74 75 75 75 75 74 73
67 67 66 67 67 68 68 69 70 72 71 69 71 71 71 71 72 74 72 73 72 72 72 70 71 70 71 74 73 71 71 69 69 71 71 72 73 74 73 73 74 74 73 73 71 70 69 68 69 70 70 70 71 70 70 67 63 63 64 64 63 61 64 62 64 62 65 64 65 75 75 74 74 75 75 75 75 75 75 76 76 75 76 75 73
68 68 66 66 67 67 67 69 71 72 71 68 71 71 72 71 72 73 74 73 72 73 72 71 70 70 71 75 75 75 73 72 71 74 77 72 73 74 76 74 74 73 73 73 73 71 71 70 71 71 71 71 70 70 71 67 65 64 63 63 63 64 63 64 60 60 60 63 65 70 74 75 74 75 75 76 75 75 75 75 76 76 76 76 74
67 68 68 68 66 66 66 68 69 71 72 69 71 70 72 72 73 73 73 74 74 73 72 72 71 71 72 75 77 77 74 73 74 75 73 72 72 74 75 75 73 74 73 73 74 72 72 71 73 73 73 72 72 69 68 65 64 63 64 62 63 63 61 62 59 57 58 61 63 65 66 73 74 73 75 75 76 76 75 75 75 75 75 74 75
66 67 68 68 66 66 65 68 68 71 71 69 69 70 71 71 72 73 73 74 74 74 72 72 73 73 75 76 77 78 77 76 77 76 75 73 73 75 75 75 73 73 73 75 74 74 73 71 72 73 73 72 69 68 67 65 64 64 63 63 63 62 62 62 62 59 58 59 60 62 64 66 73 75 74 75 75 76 76 75 75 76 75 75 74
65 66 68 68 67 66 64 65 67 69 72 69 70 70 71 72 72 72 74 74 72 72 72 73 73 73 74 77 78 79 78 76 77 78 76 74 75 73 74 72 75 74 74 76 73 75 72 71 70 70 70 69 67 67 65 66 64 64 64 64 63 63 60 62 60 61 61 60 61 63 61 63 65 72 73 75 75 76 76 76 76 76 75 75 74
65 66 68 69 69 68 67 67 69 70 72 71 70 71 71 71 70 72 72 75 74 73 73 73 73 73 73 74 77 78 78 78 78 78 76 75 75 74 73 74 74 75 74 76 75 73 70 70 69 70 70 67 66 66 66 65 64 65 65 64 63 62 62 61 62 62 61 65 65 63 64 62 61 64 67 73 75 75 76 76 76 75 75 75 76
66 68 69 70 69 70 70 69 69 70 72 72 72 72 71 71 71 71 72 74 72 73 72 72 72 71 72 73 76 77 77 78 78 78 76 76 74 72 75 75 76 75 74 75 75 73 71 71 70 68 67 65 67 66 65 64 65 64 64 65 64 63 61 61 61 59 59 64 65 65 65 66 66 65 66 64 72 74 76 76 76 76 75 75 75
67 68 69 71 71 70 71 69 69 71 72 72 73 73 73 72 72 72 72 74 73 73 74 73 72 71 72 70 74 77 78 78 78 79 76 75 73 75 73 74 75 74 75 75 73 72 71 67 69 69 68 68 65 64 64 64 64 63 64 63 63 63 63 63 62 61 62 64 64 62 64 66 69 67 68 64 65 74 75 75 75 75 74 74 74
68 68 70 71 71 70 70 70 70 69 72 73 73 73 73 73 72 71 74 74 73 72 73 72 72 70 71 71 75 77 78 78 79 78 77 75 74 74 75 75 74 74 74 73 72 70 69 68 68 69 67 68 64 63 62 62 63 63 63 61 64 62 62 63 63 63 62 62 64 63 63 62 67 68 67 67 63 70 72 74 74 75 74 74 74
67 69 70 72 72 71 71 72 71 70 71 73 74 74 73 74 72 73 72 75 75 73 72 73 71 72 70 74 77 78 77 77 79 80 78 77 75 74 73 73 75 75 75 74 72 69 69 68 68 67 68 68 64 64 63 63 62 62 62 61 63 65 64 62 64 62 61 58 58 60 56 63 62 64 67 69 68 71 72 72 72 74 74 74 74
68 69 71 72 73 73 72 73 73 71 71 72 73 72 72 71 72 72 73 74 75 73 74 73 72 72 72 75 78 77 77 76 79 80 79 77 75 75 74 75 75 75 73 73 71 67 67 68 68 67 67 65 66 65 64 64 63 64 63 63 64 64 64 64 64 62 62 60 59 59 56 58 63 63 62 64 65 67 72 73 73 73 74 72 74
68 69 70 71 72 72 72 72 73 73 70 70 71 71 70 71 72 71 71 73 74 74 74 74 72 71 73 75 77 76 77 77 79 79 78 77 77 76 76 74 74 75 74 72 68 68 68 67 67 67 65 64 64 65 64 63 64 63 64 63 64 64 64 63 62 60 58 56 56 55 56 57 59 60 64 64 64 64 65 67 70 72 73 74 73
68 68 69 71 72 72 71 71 72 73 71 70 71 72 72 71 71 71 70 71 73 74 76 75 75 73 75 77 78 77 77 79 78 79 78 77 77 76 75 75 75 75 73 70 69 67 68 67 66 66 66 64 63 63 63 63 63 62 61 60 58 62 62 61 57 56 56 55 54 57 58 53 54 56 59 62 65 65 65 66 68 67 69 72 71
67 67 69 70 72 72 72 72 72 73 72 71 72 73 73 72 71 72 71 71 73 74 73 75 75 75 75 78 78 79 79 78 78 78 78 77 77 77 74 74 74 71 70 69 69 67 67 66 67 65 65 65 65 64 65 65 59 60 62 61 55 54 63 62 56 56 52 54 54 53 54 54 54 57 60 61 60 63 62 65 66 67 67 67 65
67 68 68 70 71 73 73 72 72 73 73 73 73 73 74 73 73 74 75 73 74 75 76 76 75 75 74 76 76 78 79 77 77 77 77 77 77 75 75 73 72 70 69 69 68 67 66 67 66 66 67 65 60 64 65 65 63 61 59 60 58 53 53 62 60 59 54 55 51 52 54 54 56 58 59 59 56 61 62 62 63 64 65 65 65
66 67 68 69 70 72 73 73 73 73 73 74 74 74 75 74 74 76 77 77 75 74 74 74 74 75 73 74 76 76 78 77 76 77 76 77 77 75 72 70 70 70 69 68 67 65 65 65 67 68 67 65 64 60 63 63 63 63 61 59 56 56 54 59 52 60 57 56 52 53 55 54 55 59 58 59 59 58 58 59 62 62 62 63 64
67 68 68 69 71 72 73 74 74 74 74 74 75 74 75 75 77 76 75 73 72 72 72 73 73 73 71 72 75 75 76 75 73 74 74 73 73 72 72 70 69 69 68 65 65 66 67 67 68 67 66 67 67 62 59 63 63 65 64 61 59 59 60 61 58 61 61 55 57 53 55 52 56 58 59 59 57 56 56 58 59 60 59 61 60
68 68 69 70 71 72 73 74 74 74 74 74 75 75 75 78 76 75 74 74 72 72 73 73 70 69 70 70 74 75 75 73 72 73 73 72 73 72 71 70 69 68 68 67 66 64 65 67 67 67 66 67 67 64 60 59 64 63 64 62 63 63 61 60 59 58 57 59 57 50 53 54 53 52 54 55 55 56 58 58 55 56 60 59 59
68 68 69 69 71 73 74 74 74 74 74 75 75 76 76 75 74 75 73 74 70 71 72 71 70 70 69 70 71 71 73 73 72 73 73 72 72 72 72 71 69 65 67 66 65 65 68 68 68 67 68 68 66 64 62 62 59 62 63 63 63 63 64 60 60 58 56 54 57 53 48 51 52 51 52 52 52 57 59 60 59 57 57 59 58
67 68 69 70 71 72 74 75 75 75 75 75 75 76 77 76 76 75 74 73 72 71 69 69 69 71 70 72 72 71 73 74 73 72 73 72 72 71 72 71 69 66 65 65 63 65 67 66 67 68 67 67 67 66 65 64 63 60 65 65 63 63 62 58 61 61 56 56 52 51 53 52 54 54 56 54 54 57 57 59 58 58 58 59 60
67 70 70 69 70 72 74 75 75 75 75 76 75 76 76 76 75 74 74 73 73 72 69 68 70 71 72 72 73 73 71 72 73 73 73 72 72 72 71 69 67 62 64 64 64 64 65 65 66 66 65 64 65 65 63 64 63 63 63 65 63 62 61 59 57 59 58 58 56 54 53 52 55 58 57 56 59 56 58 59 60 58 57 57 58
67 68 69 69 70 72 73 74 75 75 76 75 75 75 75 75 75 75 75 74 73 72 71 70 70 72 73 72 72 73 72 71 69 72 72 71 72 71 67 65 64 62 65 65 65 61 61 63 64 65 65 65 65 64 63 62 63 65 64 64 63 60 58 58 59 57 57 56 55 52 49 49 53 54 56 56 59 58 59 60 60 58 59 58 58